TimeCST,TemperatureF,Dew PointF,Humidity,Sea Level PressureIn,VisibilityMPH,Wind Direction,Wind SpeedMPH,Gust SpeedMPH,PrecipitationIn,Events,Conditions,WindDirDegrees,DateUTC
12:53 AM,14.0,3.9,64,30.26,10.0,NNW,12.7,-,N/A,,Overcast,330,2012-11-26 06:53:00
1:53 AM,12.0,3.0,67,30.29,10.0,NW,11.5,-,N/A,,Scattered Clouds,310,2012-11-26 07:53:00
2:53 AM,9.0,1.9,73,30.31,10.0,NW,11.5,-,N/A,,Clear,320,2012-11-26 08:53:00
3:53 AM,7.0,1.0,77,30.33,10.0,NW,8.1,-,N/A,,Clear,310,2012-11-26 09:53:00
4:53 AM,6.1,-0.0,76,30.34,10.0,NNW,9.2,-,N/A,,Clear,330,2012-11-26 10:53:00
5:53 AM,5.0,-0.9,76,30.38,10.0,WNW,5.8,-,N/A,,Clear,300,2012-11-26 11:53:00
6:53 AM,3.9,-2.0,76,30.40,10.0,NW,8.1,-,N/A,,Clear,310,2012-11-26 12:53:00
7:53 AM,3.9,-2.0,76,30.42,10.0,NW,9.2,-,N/A,,Clear,310,2012-11-26 13:53:00
8:53 AM,5.0,-0.9,76,30.44,10.0,NW,8.1,-,N/A,,Clear,310,2012-11-26 14:53:00
9:53 AM,7.0,-0.9,70,30.46,10.0,WNW,9.2,-,N/A,,Clear,300,2012-11-26 15:53:00
10:53 AM,10.0,-0.0,64,30.46,10.0,WNW,6.9,-,N/A,,Clear,300,2012-11-26 16:53:00
11:53 AM,12.9,1.9,62,30.45,10.0,West,8.1,-,N/A,,Clear,260,2012-11-26 17:53:00
12:53 PM,14.0,1.9,59,30.44,10.0,NW,6.9,-,N/A,,Clear,310,2012-11-26 18:53:00
1:53 PM,15.1,3.0,59,30.42,10.0,West,5.8,-,N/A,,Clear,260,2012-11-26 19:53:00
2:53 PM,16.0,3.0,57,30.42,10.0,WSW,10.4,-,N/A,,Clear,250,2012-11-26 20:53:00
3:53 PM,16.0,3.0,57,30.43,10.0,WSW,9.2,-,N/A,,Clear,250,2012-11-26 21:53:00
4:53 PM,15.1,3.9,61,30.41,10.0,WSW,6.9,-,N/A,,Clear,240,2012-11-26 22:53:00
5:53 PM,15.1,5.0,64,30.40,10.0,South,3.5,-,N/A,,Clear,170,2012-11-26 23:53:00
6:53 PM,16.0,6.1,65,30.38,10.0,SW,8.1,-,N/A,,Mostly Cloudy,220,2012-11-27 00:53:00
7:53 PM,16.0,6.1,65,30.37,10.0,SSW,8.1,-,N/A,,Mostly Cloudy,210,2012-11-27 01:53:00
8:53 PM,16.0,6.1,65,30.35,10.0,SW,6.9,-,N/A,,Mostly Cloudy,220,2012-11-27 02:53:00
9:53 PM,16.0,7.0,68,30.33,10.0,SSW,6.9,-,N/A,,Overcast,200,2012-11-27 03:53:00
10:53 PM,16.0,7.0,68,30.32,10.0,SSW,10.4,-,N/A,,Overcast,210,2012-11-27 04:53:00
11:53 PM,17.1,7.0,65,30.31,10.0,SSW,6.9,-,N/A,,Overcast,200,2012-11-27 05:53:00